American Falls Reservoir Weather Center

Moon Phase Calendar



American Falls Reservoir Water Level
Online Cameras

 


      

Current Conditions in Aberdeen
3/2/2024 1:13:37 PM

30°F
Feels Like 18
Snow
Humidity
86%
Pressure
29.56"
Wind
21.8 mph (W)
Dew Point
27°F
UV Index
3/10 (Moderate)
Visibility
6 mi

Hourly Forecast

Date & Time Sat, Mar 2
1:00 PM
Sat, Mar 2
2:00 PM
Sat, Mar 2
3:00 PM
Sat, Mar 2
4:00 PM
Sat, Mar 2
5:00 PM
Sat, Mar 2
6:00 PM
Sat, Mar 2
7:00 PM
Sat, Mar 2
8:00 PM
Sat, Mar 2
9:00 PM
Sat, Mar 2
10:00 PM
Sat, Mar 2
11:00 PM
Sun, Mar 3
12:00 AM
Sun, Mar 3
1:00 AM
Sun, Mar 3
2:00 AM
Sun, Mar 3
3:00 AM
Sun, Mar 3
4:00 AM
Sun, Mar 3
5:00 AM
Sun, Mar 3
6:00 AM
Sun, Mar 3
7:00 AM
Sun, Mar 3
8:00 AM
Sun, Mar 3
9:00 AM
Sun, Mar 3
10:00 AM
Sun, Mar 3
11:00 AM
Sun, Mar 3
12:00 PM
Sun, Mar 3
1:00 PM
Sun, Mar 3
2:00 PM
Sun, Mar 3
3:00 PM
Sun, Mar 3
4:00 PM
Sun, Mar 3
5:00 PM
Sun, Mar 3
6:00 PM
Sun, Mar 3
7:00 PM
Sun, Mar 3
8:00 PM
Sun, Mar 3
9:00 PM
Sun, Mar 3
10:00 PM
Sun, Mar 3
11:00 PM
Mon, Mar 4
12:00 AM
Mon, Mar 4
1:00 AM
Mon, Mar 4
2:00 AM
Mon, Mar 4
3:00 AM
Mon, Mar 4
4:00 AM
Mon, Mar 4
5:00 AM
Mon, Mar 4
6:00 AM
Mon, Mar 4
7:00 AM
Mon, Mar 4
8:00 AM
Mon, Mar 4
9:00 AM
Mon, Mar 4
10:00 AM
Mon, Mar 4
11:00 AM
Mon, Mar 4
12:00 PM
Condition
Snow

Clouds

Clouds

Snow

Snow

Snow

Snow

Snow

Clouds

Clouds

Clouds

Clouds

Clouds

Clouds

Clouds

Clouds

Clouds

Clouds

Clouds

Clouds

Clouds

Clouds

Clouds

Clouds

Snow

Snow

Snow

Snow

Snow

Snow

Clouds

Clouds

Clouds

Clouds

Clouds

Clouds

Clouds

Clouds

Clouds

Clouds

Clouds

Clouds

Clouds

Snow

Snow

Snow

Clouds

Clouds
Temperature 30°F31°F31°F31°F30°F28°F24°F24°F21°F19°F16°F16°F17°F20°F20°F20°F19°F19°F17°F18°F21°F23°F26°F27°F28°F28°F28°F28°F27°F25°F21°F20°F19°F18°F17°F16°F15°F15°F14°F15°F16°F18°F17°F20°F23°F26°F27°F28°F
Feels Like 18°F19°F21°F20°F19°F18°F13°F13°F10°F9°F6°F6°F8°F12°F14°F20°F19°F19°F17°F18°F21°F18°F18°F18°F18°F19°F20°F17°F15°F14°F10°F8°F7°F7°F6°F5°F5°F6°F7°F7°F11°F13°F17°F15°F15°F14°F15°F16°F
Cloudiness 100%100%100%100%100%100%86%91%83%74%64%94%97%98%99%99%99%100%100%100%100%100%100%100%100%100%100%100%100%89%95%96%74%61%53%35%54%69%77%82%85%100%100%100%100%100%100%83%
Visibility 6 mi6 mi6 mi6 mi6 mi6 mi6 mi6 mi6 mi6 mi6 mi6 mi6 mi6 mi6 mi6 mi6 mi6 mi6 mi6 mi6 mi6 mi6 mi6 mi6 mi6 mi6 mi1 mi3 mi6 mi6 mi6 mi6 mi6 mi6 mi6 mi6 mi6 mi6 mi6 mi6 mi6 mi3 mi1 mi0 mi4 mi6 mi6 mi
Precipitation 77%71%65%73%87%67%64%54%48%40%36%0%0%0%0%0%0%9%10%7%5%7%7%32%40%48%52%56%68%46%33%20%16%16%16%0%0%0%0%0%0%12%31%64%75%81%75%9%
Humidity 86%84%84%82%76%74%77%77%80%80%82%82%83%83%85%87%89%91%92%91%87%85%82%79%84%81%82%88%91%87%89%89%85%82%80%80%82%84%86%87%88%88%91%94%95%91%83%78%
Dew Point 27°F27°F27°F27°F24°F20°F17°F17°F14°F12°F9°F10°F11°F14°F15°F16°F15°F15°F14°F14°F16°F18°F20°F21°F22°F22°F23°F24°F24°F20°F17°F15°F14°F12°F11°F9°F8°F9°F9°F10°F11°F13°F14°F18°F21°F23°F22°F21°F
Pressure 29.56"29.56"29.56"29.59"29.62"29.65"29.74"29.77"29.8"29.8"29.8"29.8"29.8"29.77"29.77"29.77"29.74"29.77"29.8"29.85"29.85"29.85"29.85"29.83"29.83"29.83"29.83"29.83"29.83"29.88"29.97"29.97"30"30"30.03"30.03"30.06"30.06"30.06"30.06"30.03"30.03"30.03"30.03"30.03"30.03"30.03"30.03"
Wind Speed 19.6 mph18.3 mph14.7 mph16.3 mph13.8 mph11.2 mph12.7 mph11.8 mph10 mph7.7 mph6.9 mph7.2 mph6.8 mph5.6 mph4.5 mph1.9 mph0.9 mph1.2 mph0.9 mph0.5 mph0.1 mph3.7 mph6.9 mph9.8 mph10.2 mph9.4 mph8 mph12.2 mph14.4 mph11.2 mph10.2 mph9.9 mph10.5 mph9.8 mph9.4 mph8.4 mph6.4 mph5.7 mph4.3 mph4.6 mph3.2 mph3.2 mph1.9 mph3.8 mph7 mph14.6 mph16.5 mph16.5 mph
Wind
Direction
249°
WSW
242°
WSW
240°
WSW
238°
WSW
237°
WSW
251°
WSW
227°
SW
217°
SW
204°
SSW
194°
SSW
201°
SSW
184°
S
175°
S
171°
S
169°
S
166°
SSE
135°
SE
55°
NE
349°
N
39°
NE
222°
SW
226°
SW
235°
SW
248°
WSW
248°
WSW
250°
WSW
250°
WSW
237°
WSW
249°
WSW
258°
WSW
220°
SW
198°
SSW
199°
SSW
197°
SSW
195°
SSW
188°
S
181°
S
156°
SSE
143°
SE
141°
SE
155°
SSE
146°
SE
209°
SSW
229°
SW
223°
SW
253°
WSW
251°
WSW
253°
WSW

Daily Forecast

Date High Low Precip. Humidity
Today
Mar 2

Snow
36 °F
16 °F
100%
87%
Sunday
Mar 3

Snow
28 °F
16 °F
68%
79%
Monday
Mar 4

Snow
29 °F
14 °F
81%
78%
Tuesday
Mar 5

Snow
33 °F
21 °F
94%
99%
Wednesday
Mar 6

Snow
34 °F
12 °F
100%
87%
Thursday
Mar 7

Clouds
25 °F
4 °F
0%
84%
Friday
Mar 8

Clouds
24 °F
6 °F
0%
91%
Saturday
Mar 9

Clouds
28 °F
4 °F
0%
85%
Sunday
Mar 10

Clouds
32 °F
12 °F
0%
87%
Monday
Mar 11

Clouds
35 °F
20 °F
11%
89%
Tuesday
Mar 12

Snow
35 °F
23 °F
90%
86%
Wednesday
Mar 13

Clouds
31 °F
20 °F
0%
84%
Thursday
Mar 14

Clouds
32 °F
17 °F
0%
86%
Friday
Mar 15

Clouds
33 °F
23 °F
0%
90%
Saturday
Mar 16

Clouds
36 °F
26 °F
0%
89%
Sunday
Mar 17

Clouds
39 °F
29 °F
0%
92%

Temperature 8-14 Day Outlook



Precipitation 8-14 Day Outlook




Quick Links
American Falls Reservoir News
American Falls Reservoir Photos
American Falls Reservoir Videos




About Us
Contact Us
Site Map
Search Site
Advertise With Us
   
AmericanFalls.USLakes.info
THE AMERICAN FALLS RESERVOIR WEBSITE

Copyright 2024, Lakes Online
Privacy    |    Legal